When you browse on this site, cookies collect data to enhance your experience and personalize the content and advertising you see.
Visit our Privacy Policy to learn more. By continuing to use the site, you agree to this use of cookies and data.
  • Em Portugal
  • Lista de países
  • Para 7 dias
  • Temperatura da água
  • Mapa do tempo
  • Widgets de tempo
  • user-avatar
    Iniciar Sessão

    Previsão horária em Nijar

    Hoje, 12 Novembro, Terça-feira

    Tempo Temperatura Precipitação Vento Pressão Humidade
    00:00 +11°C° 0 mm 3 m/s 718 mmHg 65%
    01:00 +10°C° 0 mm 2 m/s 718 mmHg 66%
    02:00 +10°C° 0 mm 2 m/s 718 mmHg 68%
    03:00 +10°C° 0 mm 2 m/s 718 mmHg 69%
    04:00 +10°C° 0 mm 2 m/s 718 mmHg 69%
    05:00 +9°C° 0 mm 2 m/s 718 mmHg 69%
    06:00 +9°C° 0 mm 2 m/s 718 mmHg 70%
    07:00 +10°C° 0 mm 2 m/s 718 mmHg 63%
    08:00 +13°C° 0 mm 2 m/s 718 mmHg 56%
    09:00 +14°C° 0 mm 2 m/s 718 mmHg 49%
    10:00 +15°C° 0 mm 2 m/s 719 mmHg 45%
    11:00 +16°C° 0 mm 2 m/s 719 mmHg 41%
    12:00 +17°C° 0 mm 2 m/s 718 mmHg 36%
    13:00 +17°C° 0 mm 2 m/s 718 mmHg 41%
    14:00 +16°C° 0 mm 3 m/s 717 mmHg 45%
    15:00 +16°C° 0 mm 3 m/s 717 mmHg 50%
    16:00 +14°C° 0 mm 3 m/s 717 mmHg 56%
    17:00 +14°C° 0 mm 3 m/s 717 mmHg 62%
    18:00 +14°C° 0 mm 2 m/s 718 mmHg 68%
    19:00 +13°C° 0 mm 2 m/s 718 mmHg 68%
    20:00 +13°C° 0 mm 2 m/s 718 mmHg 69%
    21:00 +13°C° 0 mm 1 m/s 718 mmHg 69%
    22:00 +13°C° 0 mm 1 m/s 718 mmHg 66%
    23:00 +13°C° 0 mm 2 m/s 717 mmHg 63%

    Amanhã, 13 Novembro, Quarta-feira

    Tempo Temperatura Precipitação Vento Pressão Humidade
    00:00 +12°C° 0 mm 2 m/s 717 mmHg 60%
    01:00 +12°C° 0 mm 2 m/s 717 mmHg 59%
    02:00 +12°C° 0 mm 2 m/s 716 mmHg 57%
    03:00 +11°C° 0 mm 3 m/s 716 mmHg 56%
    04:00 +11°C° 0 mm 3 m/s 716 mmHg 57%
    05:00 +11°C° 0 mm 3 m/s 716 mmHg 59%
    06:00 +12°C° 0 mm 3 m/s 716 mmHg 61%
    07:00 +13°C° 0 mm 3 m/s 716 mmHg 58%
    08:00 +14°C° 0 mm 3 m/s 716 mmHg 55%
    09:00 +17°C° 0 mm 3 m/s 717 mmHg 52%
    10:00 +18°C° 0 mm 4 m/s 717 mmHg 50%
    11:00 +19°C° 0 mm 4 m/s 717 mmHg 49%
    12:00 +20°C° 0 mm 5 m/s 717 mmHg 47%
    13:00 +19°C° 0 mm 5 m/s 717 mmHg 47%
    14:00 +19°C° 0 mm 5 m/s 717 mmHg 48%
    15:00 +19°C° 0 mm 5 m/s 717 mmHg 48%
    16:00 +18°C° 0 mm 4 m/s 717 mmHg 54%
    17:00 +17°C° 0 mm 3 m/s 717 mmHg 60%
    18:00 +16°C° 0 mm 2 m/s 718 mmHg 65%
    19:00 +15°C° 0 mm 2 m/s 718 mmHg 66%
    20:00 +15°C° 0 mm 1 m/s 718 mmHg 66%
    21:00 +15°C° 0 mm 1 m/s 718 mmHg 66%
    22:00 +14°C° 0 mm 1 m/s 717 mmHg 67%
    23:00 +14°C° 0 mm 2 m/s 717 mmHg 67%

    Depois de amanhã, 14 Novembro, Quinta-feira

    Tempo Temperatura Precipitação Vento Pressão Humidade
    00:00 +14°C° 0 mm 2 m/s 717 mmHg 67%
    01:00 +13°C° 0 mm 3 m/s 716 mmHg 66%
    02:00 +12°C° 0 mm 3 m/s 716 mmHg 65%
    03:00 +12°C° 0 mm 4 m/s 715 mmHg 64%
    04:00 +12°C° 0 mm 4 m/s 715 mmHg 64%
    05:00 +10°C° 0 mm 5 m/s 714 mmHg 64%
    06:00 +10°C° 0 mm 5 m/s 714 mmHg 63%
    07:00 +12°C° 0 mm 5 m/s 714 mmHg 55%
    08:00 +14°C° 0 mm 6 m/s 714 mmHg 48%
    09:00 +15°C° 0 mm 6 m/s 714 mmHg 40%
    10:00 +15°C° 0 mm 7 m/s 714 mmHg 39%
    11:00 +16°C° 0 mm 8 m/s 714 mmHg 38%
    12:00 +17°C° 0 mm 8 m/s 714 mmHg 37%
    13:00 +16°C° 0 mm 9 m/s 713 mmHg 41%
    14:00 +14°C° 0 mm 10 m/s 713 mmHg 45%
    15:00 +13°C° 0 mm 10 m/s 713 mmHg 49%
    16:00 +12°C° 0 mm 9 m/s 713 mmHg 48%
    17:00 +11°C° 0 mm 9 m/s 713 mmHg 48%
    18:00 +10°C° 0 mm 8 m/s 713 mmHg 48%
    19:00 +9°C° 0 mm 8 m/s 713 mmHg 48%
    20:00 +9°C° 0 mm 7 m/s 713 mmHg 48%
    21:00 +8°C° 0 mm 7 m/s 713 mmHg 49%
    22:00 +8°C° 0 mm 7 m/s 713 mmHg 49%
    23:00 +8°C° 0 mm 6 m/s 713 mmHg 50%

    15 Novembro, Sexta-feira

    Tempo Temperatura Precipitação Vento Pressão Humidade
    00:00 +8°C° 0 mm 6 m/s 713 mmHg 51%
    01:00 +7°C° 0 mm 5 m/s 713 mmHg 52%
    02:00 +7°C° 0 mm 4 m/s 713 mmHg 53%
    03:00 +6°C° 0 mm 4 m/s 713 mmHg 55%
    04:00 +7°C° 0 mm 3 m/s 713 mmHg 56%
    05:00 +7°C° 0 mm 3 m/s 713 mmHg 56%
    06:00 +6°C° 0 mm 2 m/s 713 mmHg 57%
    07:00 +7°C° 0 mm 2 m/s 713 mmHg 54%
    08:00 +8°C° 0 mm 2 m/s 714 mmHg 49%
    09:00 +9°C° 0 mm 3 m/s 714 mmHg 44%
    10:00 +10°C° 0 mm 2 m/s 714 mmHg 41%
    11:00 +12°C° 0 mm 2 m/s 714 mmHg 38%
    12:00 +12°C° 0 mm 2 m/s 714 mmHg 35%
    13:00 +12°C° 0.1 mm 2 m/s 714 mmHg 37%
    14:00 +12°C° 0.1 mm 2 m/s 713 mmHg 39%
    15:00 +11°C° 0.1 mm 3 m/s 713 mmHg 41%
    16:00 +10°C° 0.5 mm 2 m/s 713 mmHg 45%
    17:00 +10°C° 0.5 mm 2 m/s 714 mmHg 48%
    18:00 +9°C° 0.5 mm 2 m/s 714 mmHg 52%
    19:00 +9°C° 0.2 mm 3 m/s 714 mmHg 52%
    20:00 +8°C° 0.2 mm 3 m/s 715 mmHg 53%
    21:00 +7°C° 0.2 mm 4 m/s 715 mmHg 54%
    22:00 +7°C° 0.1 mm 4 m/s 715 mmHg 54%
    23:00 +6°C° 0.1 mm 4 m/s 715 mmHg 54%

    16 Novembro, Sábado

    Tempo Temperatura Precipitação Vento Pressão Humidade
    00:00 +6°C° 0.1 mm 4 m/s 715 mmHg 55%
    01:00 +6°C° 0 mm 4 m/s 715 mmHg 55%
    02:00 +5°C° 0 mm 4 m/s 715 mmHg 56%
    03:00 +5°C° 0 mm 3 m/s 715 mmHg 56%
    04:00 +5°C° 0 mm 3 m/s 715 mmHg 57%
    05:00 +5°C° 0 mm 3 m/s 715 mmHg 57%
    06:00 +5°C° 0 mm 3 m/s 715 mmHg 57%
    07:00 +7°C° 0 mm 3 m/s 716 mmHg 53%
    08:00 +8°C° 0 mm 3 m/s 717 mmHg 49%
    09:00 +9°C° 0 mm 2 m/s 718 mmHg 45%
    10:00 +10°C° 0 mm 2 m/s 718 mmHg 41%
    11:00 +12°C° 0 mm 2 m/s 718 mmHg 37%
    12:00 +13°C° 0 mm 2 m/s 718 mmHg 33%
    13:00 +12°C° 0 mm 3 m/s 718 mmHg 33%
    14:00 +12°C° 0 mm 3 m/s 718 mmHg 34%
    15:00 +12°C° 0 mm 4 m/s 718 mmHg 35%
    16:00 +11°C° 0 mm 4 m/s 719 mmHg 40%
    17:00 +10°C° 0 mm 3 m/s 719 mmHg 46%
    18:00 +9°C° 0 mm 3 m/s 719 mmHg 51%
    19:00 +9°C° 0 mm 3 m/s 720 mmHg 51%
    20:00 +9°C° 0 mm 2 m/s 720 mmHg 52%
    21:00 +8°C° 0 mm 2 m/s 720 mmHg 52%
    22:00 +8°C° 0 mm 2 m/s 720 mmHg 52%
    23:00 +8°C° 0 mm 2 m/s 720 mmHg 51%

    17 Novembro, Domingo

    Tempo Temperatura Precipitação Vento Pressão Humidade
    00:00 +8°C° 0 mm 2 m/s 720 mmHg 51%
    01:00 +7°C° 0 mm 2 m/s 719 mmHg 50%
    02:00 +7°C° 0 mm 2 m/s 719 mmHg 50%
    03:00 +7°C° 0 mm 2 m/s 719 mmHg 50%
    04:00 +7°C° 0 mm 2 m/s 719 mmHg 48%
    05:00 +7°C° 0 mm 2 m/s 718 mmHg 46%
    06:00 +7°C° 0 mm 2 m/s 718 mmHg 44%
    07:00 +8°C° 0 mm 3 m/s 719 mmHg 42%
    08:00 +10°C° 0 mm 3 m/s 719 mmHg 40%
    09:00 +11°C° 0 mm 3 m/s 719 mmHg 39%
    10:00 +12°C° 0 mm 4 m/s 719 mmHg 40%
    11:00 +13°C° 0 mm 5 m/s 719 mmHg 41%
    12:00 +14°C° 0 mm 5 m/s 719 mmHg 41%
    13:00 +14°C° 0 mm 6 m/s 718 mmHg 45%
    14:00 +14°C° 0 mm 6 m/s 718 mmHg 48%
    15:00 +15°C° 0 mm 7 m/s 717 mmHg 51%
    16:00 +14°C° 0 mm 7 m/s 717 mmHg 57%
    17:00 +12°C° 0 mm 7 m/s 717 mmHg 63%
    18:00 +12°C° 0 mm 8 m/s 716 mmHg 69%
    19:00 +11°C° 0.2 mm 8 m/s 717 mmHg 70%
    20:00 +11°C° 0.2 mm 7 m/s 717 mmHg 72%
    21:00 +11°C° 0.2 mm 7 m/s 717 mmHg 74%
    22:00 +11°C° 0.1 mm 7 m/s 717 mmHg 70%
    23:00 +10°C° 0.1 mm 6 m/s 717 mmHg 66%
    Mostrar mais